TimeEST,TemperatureF,Dew PointF,Humidity,Sea Level PressureIn,VisibilityMPH,Wind Direction,Wind SpeedMPH,Gust SpeedMPH,PrecipitationIn,Events,Conditions,WindDirDegrees,DateUTC
12:15 AM,64.4,42.8,45,29.95,10.0,NW,8.1,16.1,0.00,,Clear,320,2013-11-19 05:15:00
12:35 AM,64.4,41.0,42,29.95,10.0,NNW,6.9,-,0.00,,Clear,330,2013-11-19 05:35:00
12:55 AM,62.6,41.0,45,29.95,10.0,NNW,9.2,-,0.00,,Clear,330,2013-11-19 05:55:00
1:15 AM,62.6,41.0,45,29.95,10.0,NNW,9.2,-,0.00,,Clear,330,2013-11-19 06:15:00
1:35 AM,60.8,42.8,52,29.96,10.0,NNW,6.9,-,0.00,,Clear,340,2013-11-19 06:35:00
1:55 AM,60.8,41.0,48,29.96,10.0,NNW,8.1,-,0.00,,Clear,340,2013-11-19 06:55:00
2:15 AM,60.8,39.2,45,29.97,10.0,NNW,9.2,-,0.00,,Clear,340,2013-11-19 07:15:00
2:35 AM,59.0,39.2,48,29.97,10.0,NNW,9.2,-,0.00,,Clear,340,2013-11-19 07:35:00
2:55 AM,59.0,39.2,48,29.97,10.0,North,8.1,-,0.00,,Clear,350,2013-11-19 07:55:00
3:15 AM,57.2,39.2,51,29.97,10.0,North,9.2,-,0.00,,Clear,350,2013-11-19 08:15:00
3:35 AM,57.2,39.2,51,29.97,10.0,North,10.4,-,0.00,,Clear,360,2013-11-19 08:35:00
3:55 AM,57.2,39.2,51,29.98,10.0,North,11.5,-,0.00,,Clear,350,2013-11-19 08:55:00
4:15 AM,57.2,39.2,51,29.99,10.0,North,12.7,18.4,0.00,,Clear,360,2013-11-19 09:15:00
4:35 AM,55.4,39.2,54,30.00,10.0,North,11.5,-,0.00,,Clear,360,2013-11-19 09:35:00
4:55 AM,55.4,41.0,58,30.00,10.0,North,10.4,-,0.00,,Clear,360,2013-11-19 09:55:00
5:15 AM,55.4,41.0,58,30.01,10.0,North,11.5,17.3,0.00,,Clear,360,2013-11-19 10:15:00
5:35 AM,55.4,39.2,54,30.01,10.0,North,13.8,17.3,0.00,,Clear,350,2013-11-19 10:35:00
6:50 AM,57.2,41.0,55,30.03,10.0,North,13.8,-,N/A,,Clear,10,2013-11-19 11:50:00
7:50 AM,55.4,37.4,51,30.07,10.0,North,13.8,23.0,N/A,,Clear,10,2013-11-19 12:50:00
8:50 AM,55.4,33.8,44,30.08,10.0,NNE,13.8,27.6,N/A,,Clear,20,2013-11-19 13:50:00
9:50 AM,57.2,33.8,41,30.10,10.0,North,13.8,23.0,N/A,,Clear,10,2013-11-19 14:50:00
10:50 AM,57.2,33.8,41,30.11,10.0,NNE,11.5,23.0,N/A,,Clear,20,2013-11-19 15:50:00
11:50 AM,59.0,35.6,42,30.10,10.0,NNE,11.5,20.7,N/A,,Clear,20,2013-11-19 16:50:00
12:50 PM,59.0,35.6,42,30.09,10.0,NNE,11.5,20.7,N/A,,Clear,20,2013-11-19 17:50:00
1:50 PM,60.8,37.4,42,30.08,10.0,NNE,9.2,-,N/A,,Clear,20,2013-11-19 18:50:00
2:50 PM,59.0,41.0,51,30.07,10.0,NNE,9.2,-,N/A,,Clear,20,2013-11-19 19:50:00
5:50 PM,57.2,42.8,59,30.11,10.0,NE,8.1,-,N/A,,Clear,40,2013-11-19 22:50:00
6:50 PM,55.4,44.6,67,30.12,10.0,North,5.8,-,N/A,,Clear,10,2013-11-19 23:50:00
7:50 PM,57.2,44.6,63,30.14,10.0,NNE,5.8,-,N/A,,Clear,20,2013-11-20 00:50:00
8:15 PM,55.4,42.8,63,30.16,10.0,NNE,6.9,-,0.00,,Clear,20,2013-11-20 01:15:00
8:35 PM,55.4,42.8,63,30.15,10.0,North,5.8,-,0.00,,Clear,10,2013-11-20 01:35:00
8:55 PM,55.4,39.2,54,30.15,10.0,NNE,8.1,-,0.00,,Clear,20,2013-11-20 01:55:00
9:15 PM,55.4,39.2,54,30.16,10.0,North,8.1,-,0.00,,Clear,10,2013-11-20 02:15:00
9:35 PM,55.4,41.0,58,30.17,10.0,North,6.9,-,0.00,,Clear,10,2013-11-20 02:35:00
9:55 PM,55.4,42.8,63,30.16,10.0,North,6.9,-,0.00,,Clear,10,2013-11-20 02:55:00
10:15 PM,55.4,41.0,58,30.17,10.0,North,9.2,-,0.00,,Clear,360,2013-11-20 03:15:00
10:35 PM,53.6,39.2,58,30.17,10.0,North,6.9,-,0.00,,Clear,360,2013-11-20 03:35:00
10:55 PM,53.6,39.2,58,30.18,10.0,North,6.9,-,0.00,,Clear,360,2013-11-20 03:55:00
11:15 PM,53.6,39.2,58,30.18,10.0,North,8.1,-,0.00,,Clear,360,2013-11-20 04:15:00
11:35 PM,53.6,39.2,58,30.17,10.0,North,10.4,-,0.00,,Clear,360,2013-11-20 04:35:00
11:55 PM,53.6,39.2,58,30.17,10.0,North,10.4,-,0.00,,Clear,360,2013-11-20 04:55:00